Flag for Germany Weather past 2 weeks in Wolfsburg, Lower Saxony, Germany

Now
70 °F

Sunny.


Feels Like: 70 °F
Forecast: 42 / 63 °F
Wind: 17 mph from Southwest

Location: Braunschweig

Current Time: May 28, 2015 at 4:53:42 PM

Latest Report: May 28, 2015 at 4:20 PM


Visibility: 10 mi

Pressure: 29.86 "Hg

Humidity: 35%

Dew point: 41 °F

Location of WolfsburgLocation

Historic Weather in Wolfsburg — Graph

°F

Wolfsburg temperature yesterday

Maximum temperature yesterday: 61 °F (at 3:50 PM)
Minimum temperature yesterday: 46 °F (at 6:50 AM)
Average temperature yesterday: 55 °F

Past Weeks' High & Low Weather Summary

 TemperatureHumidityPressure
High68 °F (May 18, 4:50 PM)100% (May 15, 6:50 AM)30.33 "Hg (May 15, 6:50 AM)
Low37 °F (May 15, 6:50 AM)30% (May 19, 5:20 PM)29.65 "Hg (May 18, 6:50 PM)
Average57 °F59%30.02 "Hg
* Reported May 13 3:20 PM — May 28 3:20 PM, Wolfsburg, Weather by CustomWeather, © 2015

Note: Actual official high and low records may vary slightly from our data, if they occured in-between our weather recording intervals... More about our weather records

Advertising

Wolfsburg weather history for previous 24 hours

 ConditionsComfort  
Time TempWeatherWind HumidityBarometerVisibility
3:20 PM
Thu, May 28
66 °FSunny.14 mph43%29.86 "Hg10 mi
2:50 PM66 °FSunny.17 mph37%29.86 "Hg10 mi
2:20 PM68 °FSunny.18 mph35%29.86 "Hg10 mi
1:50 PM68 °FSunny.17 mph38%29.86 "Hg10 mi
1:20 PM64 °FPassing clouds.13 mph46%29.89 "HgN/A
12:50 PM64 °FPassing clouds.18 mph43%29.89 "HgN/A
12:20 PM64 °FSunny.18 mph46%29.89 "Hg10 mi
11:50 AM63 °FSunny.20 mph52%29.89 "Hg10 mi
11:20 AM61 °FPassing clouds.17 mph52%29.92 "HgN/A
10:50 AM61 °FSunny.16 mph52%29.92 "Hg10 mi
10:20 AM59 °FSunny.15 mph51%29.92 "Hg10 mi
9:50 AM57 °FSunny.16 mph51%29.92 "Hg10 mi
9:20 AM59 °FSunny.15 mph48%29.95 "Hg10 mi
8:50 AM57 °FSunny.15 mph51%29.95 "Hg10 mi
8:20 AM55 °FSunny.15 mph55%29.95 "Hg10 mi
7:50 AM55 °FSunny.15 mph55%29.95 "Hg10 mi
7:20 AM54 °FSunny.9 mph58%29.95 "Hg10 mi
6:50 AM52 °FPassing clouds.8 mph62%29.95 "HgN/A
9:50 PM
Wed, May 27
52 °FSunny.5 mph72%30.12 "Hg10 mi
9:20 PM54 °FSunny.6 mph63%30.12 "Hg10 mi
8:50 PM57 °FSunny.7 mph55%30.12 "Hg10 mi
7:50 PM57 °FSunny.7 mph51%30.12 "Hg10 mi
7:20 PM59 °FPassing clouds.8 mph48%30.12 "HgN/A
6:50 PM59 °FPassing clouds.8 mph48%30.15 "HgN/A
6:20 PM57 °FPassing clouds.9 mph48%30.15 "HgN/A
5:50 PM57 °FPassing clouds.9 mph48%30.15 "HgN/A
5:20 PM57 °FOvercast.8 mph51%30.15 "HgN/A
4:50 PM57 °FPassing clouds.7 mph51%30.15 "HgN/A
4:20 PM57 °FBroken clouds.9 mph51%30.15 "HgN/A
Weather by CustomWeather, © 2015

See weather overviewHow to use our weather pages